Tracking 28790 objects as of 19-Apr-2024
HD Live streaming from Space Station
objects crossing your sky now

USA 40 R/B DEB

Track USA 40 R/B DEB now!
10-day predictions


NORAD ID: 23379
Int'l Code: 1989-061BB
Perigee: 495.2 km
Apogee: 6,703.0 km
Inclination: 57.0 °
Period: 165.1 minutes
Semi major axis: 9970 km
RCS: Unknown
Launch date: August 8, 1989
Source: United States (US)
Launch site: AIR FORCE EASTERN TEST RANGE (AFETR)

Note: This is SATELLITE DEBRIS
Your satellite tracking list
Your tracking list is empty




NASA's NSSDC Master Catalog

Two Line Element Set (TLE):
1 23379U 89061BB  24109.90749386  .00040223  00000-0  25116-1 0  9997
2 23379  56.9789 330.1173 3113244 102.9002 293.2738  8.72076660162511
Source of the keplerian elements: AFSPC